Overview Statistics Trail Chart Weather Telemetry Raw packets
 

This is the latest recevied weather packets stored in our database for station/object GW4003. If no packets are shown the sender has not sent any weather packets the latest 10 day(s).

<< 103 104 105 106 107 108 109 >>
Time Temp. Humidity Pressure Rain* Wind** Luminosity Snow
1787855649 30° C 32% 1024.5 hPa 0 mm - - -
1787855345 29.44° C 34% 1024.5 hPa 0 mm - - -
1787855041 29.44° C 38% 1024.4 hPa 0 mm - - -
1787854738 29.44° C 36% 1024.6 hPa 0 mm - - -
1787854434 29.44° C 36% 1024.7 hPa 0 mm - - -
1787854131 28.89° C 35% 1024.8 hPa 0 mm - - -
1787853826 28.89° C 36% 1024.8 hPa 0 mm - - -
1787853523 28.89° C 33% 1024.7 hPa 0 mm - - -
1787853218 28.89° C 38% 1024.7 hPa 0 mm - - -
1787852915 28.33° C 41% 1024.8 hPa 0 mm - - -
1787852611 27.78° C 41% 1024.9 hPa 0 mm - - -
1787852308 27.78° C 36% 1025 hPa 0 mm - - -
1787852004 27.78° C 40% 1025 hPa 0 mm - - -
1787851700 27.78° C 40% 1025 hPa 0 mm - - -
1787851396 27.78° C 42% 1025 hPa 0 mm - - -
1787851092 27.78° C 42% 1025.2 hPa 0 mm - - -
1787850788 27.22° C 41% 1025.2 hPa 0 mm - - -
1787850484 26.67° C 42% 1025.2 hPa 0 mm - - -
1787850180 27.22° C 41% 1025.3 hPa 0 mm - - -
1787849876 26.67° C 47% 1025.3 hPa 0 mm - - -
1787849573 26.11° C 49% 1025.3 hPa 0 mm - - -
1787849269 26.11° C 51% 1025.4 hPa 0 mm - - -
1787848965 25.56° C 51% 1025.5 hPa 0 mm - - -
1787848662 25.56° C 51% 1025.4 hPa 0 mm - - -
1787848358 25° C 53% 1025.3 hPa 0 mm - - -

* Rain latest hour (hover to see other rain measurements)
** Current wind speed in m/s (hover to see current wind gust speed)